User: anonymous   Login
Location: Unspecified
(0.0000°N, 0.0000°E)
Time: 05:48:56
(UTC+00:00)
Language:

Picosat 4 - Orbit

View from above orbital plane
View from above orbital plane
View from above satellite
View from above satellite

Ground track
Ground track

The orbit data is extracted from the following two-line orbital elements,

1 26092U 00004K   19083.45983537  .00000083  00000-0  42227-4 0  9990
2 26092 100.2161 267.8578 0034300 137.3572 223.0284 14.43494097  4801
Epoch (UTC): 24 March 2019 11:02:09
Eccentricity: 0.0034300
inclination: 100.2161°
perigee height: 722 km
apogee height: 771 km
right ascension of ascending node: 267.8578°
argument of perigee: 137.3572°
revolutions per day: 14.43494097
mean anomaly at epoch: 223.0284°
orbit number at epoch: 480

The dashed part of the orbit path shows where the satellite is in the earth's shadow,  

DLR